Location: Arrien
(43.3167°N, 0.1500°W)
Time: 23:49:55
(UTC+00:00)

Cosmos 2227 Rocket - Pass Details

Date: 15 October 2021
Orbit: 839 x 845 km, 71.0° (Epoch: 04 December)

Event Time Altitude Azimuth Distance (km) Brightness Sun altitude
Rises 17:57:24 0° 334° (NNW) 3,413 5.7 -8.0°
Reaches altitude 10° 17:59:52 10° 335° (NNW) 2,474 4.9 -8.5°
Maximum altitude 18:05:33 89° 248° (WSW) 850 2.3 -9.5°
Drops below altitude 10° 18:11:13 10° 158° (SSE) 2,455 4.4 -10.5°
Sets 18:13:38 0° 158° (SSE) 3,385 5.1 -11.0°
